TimeCST,TemperatureF,Dew PointF,Humidity,Sea Level PressureIn,VisibilityMPH,Wind Direction,Wind SpeedMPH,Gust SpeedMPH,PrecipitationIn,Events,Conditions,WindDirDegrees,DateUTC
12:15 AM,30.2,30.2,100,29.96,2.0,ESE,3.5,-,N/A,,Clear,110,2013-11-21 06:15:00
12:35 AM,30.2,30.2,100,29.97,1.0,SE,3.5,-,N/A,,Freezing Rain,140,2013-11-21 06:35:00
12:55 AM,32.0,32.0,100,29.98,0.5,SE,4.6,-,N/A,,Light Drizzle,130,2013-11-21 06:55:00
1:15 AM,30.2,30.2,100,29.98,0.2,Calm,Calm,-,N/A,,Freezing Rain,0,2013-11-21 07:15:00
1:35 AM,30.2,30.2,100,29.99,0.2,Calm,Calm,-,N/A,,Freezing Rain,0,2013-11-21 07:35:00
1:55 AM,28.4,28.4,100,30.00,0.2,Calm,Calm,-,N/A,,Freezing Rain,0,2013-11-21 07:55:00
2:15 AM,30.2,30.2,100,30.01,0.2,Calm,Calm,-,N/A,,Freezing Rain,0,2013-11-21 08:15:00
2:35 AM,30.2,30.2,100,30.02,0.2,Calm,Calm,-,N/A,,Freezing Rain,0,2013-11-21 08:35:00
2:55 AM,-9999,-9999,N/A,30.02,0.2,Calm,Calm,-,N/A,,Light Drizzle,0,2013-11-21 08:55:00
3:15 AM,28.4,28.4,100,30.03,0.2,Calm,Calm,-,N/A,,Freezing Rain,0,2013-11-21 09:15:00
3:35 AM,28.4,28.4,100,30.04,0.2,NNW,3.5,-,N/A,,Freezing Rain,340,2013-11-21 09:35:00
3:55 AM,30.2,30.2,100,30.06,1.0,NNW,8.1,16.1,N/A,,Freezing Rain,340,2013-11-21 09:55:00
4:15 AM,32.0,32.0,100,30.06,0.5,North,15.0,21.9,N/A,,Light Drizzle,360,2013-11-21 10:15:00
4:35 AM,30.2,30.2,100,30.07,3.0,North,19.6,-,N/A,,Freezing Rain,360,2013-11-21 10:35:00
4:55 AM,30.2,30.2,100,30.07,2.0,North,20.7,-,N/A,,Freezing Rain,10,2013-11-21 10:55:00
5:15 AM,30.2,30.2,100,30.07,1.8,North,23.0,28.8,N/A,,Freezing Rain,360,2013-11-21 11:15:00
5:35 AM,28.4,28.4,100,30.08,2.5,North,18.4,31.1,N/A,Snow,Light Snow,360,2013-11-21 11:35:00
5:55 AM,28.4,28.4,100,30.10,2.5,North,21.9,-,N/A,,Overcast,360,2013-11-21 11:55:00
6:15 AM,28.4,28.4,100,30.11,4.0,North,21.9,31.1,N/A,,Overcast,360,2013-11-21 12:15:00
6:35 AM,28.4,28.4,100,30.12,6.0,North,20.7,28.8,N/A,,Freezing Rain,360,2013-11-21 12:35:00
6:55 AM,26.6,26.6,100,30.14,7.0,North,21.9,28.8,N/A,,Freezing Rain,360,2013-11-21 12:55:00
7:15 AM,26.6,26.6,100,30.16,8.0,North,23.0,29.9,N/A,,Freezing Rain,350,2013-11-21 13:15:00
7:35 AM,26.6,24.8,93,30.18,7.0,North,24.2,-,N/A,,Freezing Rain,350,2013-11-21 13:35:00
7:55 AM,26.6,24.8,93,30.20,9.0,North,18.4,25.3,N/A,,Freezing Rain,360,2013-11-21 13:55:00
8:15 AM,24.8,23.0,93,30.20,9.0,North,21.9,29.9,N/A,,Overcast,360,2013-11-21 14:15:00
8:35 AM,24.8,23.0,93,30.20,9.0,North,20.7,-,N/A,,Overcast,10,2013-11-21 14:35:00
8:55 AM,24.8,21.2,86,30.21,-9999.0,North,23.0,-,N/A,,Overcast,360,2013-11-21 14:55:00
9:15 AM,24.8,21.2,86,30.22,10.0,North,24.2,29.9,N/A,,Overcast,360,2013-11-21 15:15:00
9:35 AM,24.8,19.4,80,30.23,10.0,North,24.2,29.9,N/A,,Overcast,360,2013-11-21 15:35:00
9:55 AM,24.8,19.4,80,30.25,10.0,NNW,18.4,28.8,N/A,,Mostly Cloudy,340,2013-11-21 15:55:00
10:15 AM,24.8,19.4,80,30.26,10.0,North,17.3,25.3,N/A,,Overcast,360,2013-11-21 16:15:00
10:35 AM,24.8,17.6,74,30.26,10.0,NNW,18.4,25.3,N/A,,Overcast,340,2013-11-21 16:35:00
10:55 AM,24.8,17.6,74,30.26,10.0,North,24.2,-,N/A,,Overcast,360,2013-11-21 16:55:00
11:15 AM,24.8,17.6,74,30.25,10.0,North,17.3,28.8,N/A,,Overcast,360,2013-11-21 17:15:00
11:35 AM,24.8,17.6,74,30.25,10.0,North,23.0,29.9,N/A,,Overcast,350,2013-11-21 17:35:00
11:55 AM,24.8,15.8,69,30.25,10.0,North,24.2,31.1,N/A,,Overcast,360,2013-11-21 17:55:00
12:15 PM,24.8,15.8,69,30.25,10.0,North,23.0,28.8,N/A,,Overcast,360,2013-11-21 18:15:00
12:35 PM,24.8,15.8,69,30.25,10.0,North,24.2,-,N/A,,Overcast,350,2013-11-21 18:35:00
12:55 PM,24.8,15.8,69,30.25,10.0,North,21.9,28.8,N/A,,Overcast,360,2013-11-21 18:55:00
1:15 PM,24.8,15.8,69,30.26,10.0,North,23.0,-,N/A,,Overcast,350,2013-11-21 19:15:00
1:35 PM,24.8,15.8,69,30.27,10.0,North,18.4,27.6,N/A,,Overcast,350,2013-11-21 19:35:00
1:55 PM,24.8,15.8,69,30.28,10.0,North,18.4,-,N/A,,Overcast,10,2013-11-21 19:55:00
2:15 PM,24.8,15.8,69,30.28,10.0,North,17.3,26.5,N/A,,Overcast,360,2013-11-21 20:15:00
2:35 PM,24.8,15.8,69,30.29,10.0,North,19.6,26.5,N/A,,Overcast,360,2013-11-21 20:35:00
2:55 PM,23.0,15.8,74,30.29,10.0,North,21.9,28.8,N/A,,Overcast,350,2013-11-21 20:55:00
3:15 PM,23.0,17.6,80,30.29,4.0,North,18.4,-,N/A,,Freezing Rain,350,2013-11-21 21:15:00
3:35 PM,23.0,17.6,80,30.31,5.0,North,20.7,26.5,N/A,Snow,Light Snow,350,2013-11-21 21:35:00
3:55 PM,23.0,17.6,80,30.31,8.0,North,24.2,-,N/A,,Overcast,360,2013-11-21 21:55:00
4:15 PM,23.0,19.4,86,30.32,8.0,North,25.3,32.2,N/A,,Overcast,360,2013-11-21 22:15:00
4:35 PM,23.0,17.6,80,30.32,9.0,North,24.2,29.9,N/A,,Overcast,360,2013-11-21 22:35:00
4:55 PM,23.0,17.6,80,30.33,10.0,North,25.3,32.2,N/A,,Overcast,350,2013-11-21 22:55:00
5:15 PM,23.0,17.6,80,30.34,10.0,North,23.0,32.2,N/A,,Overcast,360,2013-11-21 23:15:00
5:35 PM,23.0,17.6,80,30.35,10.0,North,26.5,-,N/A,,Freezing Rain,360,2013-11-21 23:35:00
5:55 PM,23.0,15.8,74,30.36,10.0,North,25.3,32.2,N/A,,Freezing Rain,350,2013-11-21 23:55:00
6:15 PM,21.2,15.8,80,30.37,10.0,North,25.3,31.1,N/A,,Overcast,350,2013-11-22 00:15:00
6:35 PM,21.2,15.8,80,30.38,10.0,North,23.0,28.8,N/A,,Overcast,360,2013-11-22 00:35:00
6:55 PM,21.2,15.8,80,30.38,6.0,North,23.0,34.5,N/A,Snow,Light Snow,350,2013-11-22 00:55:00
7:15 PM,21.2,15.8,80,30.39,4.0,North,17.3,28.8,N/A,Snow,Light Snow,360,2013-11-22 01:15:00
7:35 PM,21.2,15.8,80,30.39,4.0,North,23.0,-,N/A,Snow,Light Snow,350,2013-11-22 01:35:00
7:55 PM,19.4,17.6,93,30.40,2.5,North,19.6,29.9,N/A,Snow,Light Snow,350,2013-11-22 01:55:00
8:15 PM,19.4,17.6,93,30.41,2.0,North,20.7,27.6,N/A,Snow,Light Snow,360,2013-11-22 02:15:00
8:35 PM,19.4,15.8,86,30.42,2.0,North,20.7,26.5,N/A,Snow,Light Snow,350,2013-11-22 02:35:00
8:55 PM,19.4,15.8,86,30.43,3.0,North,18.4,26.5,N/A,Snow,Light Snow,350,2013-11-22 02:55:00
9:15 PM,19.4,15.8,86,30.43,6.0,North,20.7,-,N/A,Snow,Light Snow,350,2013-11-22 03:15:00
9:35 PM,19.4,15.8,86,30.44,3.0,North,20.7,27.6,N/A,Snow,Light Snow,350,2013-11-22 03:35:00
9:55 PM,19.4,15.8,86,30.45,3.0,North,18.4,27.6,N/A,Snow,Light Snow,350,2013-11-22 03:55:00
10:15 PM,19.4,15.8,86,30.45,3.0,NNW,18.4,-,N/A,Snow,Light Snow,340,2013-11-22 04:15:00
10:35 PM,19.4,15.8,86,30.47,3.0,North,17.3,25.3,N/A,Snow,Light Snow,350,2013-11-22 04:35:00
10:55 PM,19.4,15.8,86,30.47,2.5,North,18.4,26.5,N/A,Snow,Light Snow,350,2013-11-22 04:55:00
11:15 PM,19.4,14.0,80,30.48,4.0,North,17.3,28.8,N/A,Snow,Light Snow,350,2013-11-22 05:15:00
11:35 PM,17.6,14.0,86,30.49,3.0,North,20.7,26.5,N/A,Snow,Light Snow,360,2013-11-22 05:35:00
11:55 PM,17.6,15.8,93,30.50,2.5,North,19.6,-,N/A,Snow,Light Snow,350,2013-11-22 05:55:00